Danbury, CT

5:25 PM EDT on July 25, 2016 (GMT -0400)
Danbury Municipal

Weather History for KDXR - April, 2013

Change the Weather History Date:

Saturday, April 20, 2013

  Actual Average Record
Temperature  
Mean Temperature 52 °F -  
Max Temperature 57 °F 62 °F 89 °F (1976)
Min Temperature 42 °F 39 °F 27 °F (1956)
Degree Days  
Heating Degree Days 13    
Growing Degree Days 2 (Base 50)    
Moisture  
Dew Point 36 °F    
Average Humidity 63    
Maximum Humidity 94    
Minimum Humidity 29    
Precipitation  
Precipitation 0.28 in - - ()
Sea Level Pressure  
Sea Level Pressure 29.90 in    
Wind  
Wind Speed 6 mph (WNW)    
Max Wind Speed 16 mph    
Max Gust Speed 25 mph    
Visibility 8 miles    
Events Rain    
Averages and records for this station are not official NWS values.
T = Trace of Precipitation, MM = Missing Value Source: NWS Daily Summary

Daily Weather History Graph

Daily Weather History Graph

Search for Another Location

Airport or City:

Trip Planner

Search our weather history database for the weather conditions in past years. The results will help you decide how hot, cold, wet, or windy it might be!

Date:

Astronomy

Apr. 20, 2013 Rise Set
Actual Time 6:06 AM EDT 7:39 PM EDT
Civil Twilight 5:37 AM EDT 8:09 PM EDT
Nautical Twilight 5:02 AM EDT 8:44 PM EDT
Astronomical Twilight 4:24 AM EDT 9:21 PM EDT
Moon 2:17 PM EDT (4/20) 2:57 AM EDT (4/20)
Length of Visible Light 14h 31m
Length of Day
13h 33m
Waxing Gibbous, 71% of the Moon is Illuminated
Apr 20
Waxing Gibbous
Apr 25
Full
May 2
Last Quarter
May 9
New
May 18
First Quarter

Hourly Weather History & Observations

Time (EDT) Temp. Windchill Dew Point Humidity Pressure Visibility Wind Dir Wind Speed Gust Speed Precip Events Conditions
12:34 AM 62.6 °F - 60.8 °F 94% 29.69 in 6.0 mi South 5.8 mph - 0.03 in Rain Light Rain
12:53 AM 55.9 °F - 50.0 °F 80% 29.71 in 4.0 mi West 8.1 mph 18.4 mph 0.08 in Rain Light Rain
1:19 AM 53.6 °F - 48.2 °F 82% 29.70 in 10.0 mi WSW 4.6 mph - 0.01 in Rain Light Rain
1:53 AM 53.1 °F - 48.0 °F 83% 29.69 in 10.0 mi Calm Calm - 0.02 in Rain Light Rain
2:53 AM 52.0 °F - 46.9 °F 83% 29.68 in 9.0 mi Calm Calm - 0.01 in Rain Light Rain
3:28 AM 51.8 °F - 48.2 °F 88% 29.73 in 4.0 mi West 6.9 mph - 0.05 in Rain Rain
3:53 AM 51.1 °F - 48.0 °F 89% 29.71 in 5.0 mi WNW 3.5 mph - 0.10 in Rain Light Rain
4:09 AM 50.0 °F - 46.4 °F 87% 29.71 in 6.0 mi NNW 8.1 mph - 0.02 in Rain Light Rain
4:37 AM 46.4 °F 42.4 °F 42.8 °F 87% 29.75 in 4.0 mi NNW 8.1 mph - 0.05 in Rain Light Rain
4:53 AM 45.0 °F 41.2 °F 41.0 °F 86% 29.76 in 4.0 mi NNW 6.9 mph - 0.06 in Rain Light Rain
5:53 AM 44.1 °F 41.5 °F 39.0 °F 82% 29.81 in 10.0 mi NW 4.6 mph - 0.00 in   Overcast
6:34 AM 44.6 °F 40.7 °F 39.2 °F 81% 29.84 in 7.0 mi Variable 6.9 mph - 0.00 in Rain Light Rain
6:46 AM 42.8 °F 41.1 °F 39.2 °F 87% 29.86 in 4.0 mi NW 3.5 mph - 0.00 in Rain Light Rain
6:53 AM 43.0 °F 41.3 °F 39.9 °F 89% 29.86 in 4.0 mi WNW 3.5 mph - 0.00 in Rain Light Rain
7:53 AM 44.1 °F - 39.9 °F 85% 29.87 in 10.0 mi Calm Calm - 0.00 in   Overcast
8:00 AM 44.6 °F - 39.2 °F 81% 29.86 in 10.0 mi Calm Calm - N/A   Overcast
8:53 AM 46.9 °F - 41.0 °F 80% 29.87 in 10.0 mi West 5.8 mph - N/A   Partly Cloudy
9:53 AM 50.0 °F - 33.1 °F 52% 29.88 in 10.0 mi West 11.5 mph 18.4 mph 0.01 in   Partly Cloudy
10:53 AM 50.0 °F - 32.0 °F 50% 29.93 in 10.0 mi WNW 11.5 mph - N/A   Clear
11:53 AM 50.0 °F - 24.1 °F 36% 29.96 in 10.0 mi West 16.1 mph 21.9 mph N/A   Clear
12:53 PM 51.1 °F - 27.0 °F 39% 29.95 in 10.0 mi West 9.2 mph - N/A   Clear
1:53 PM 55.0 °F - 30.0 °F 38% 29.94 in 10.0 mi WNW 9.2 mph 19.6 mph N/A   Partly Cloudy
2:53 PM 55.0 °F - 27.0 °F 34% 29.95 in 10.0 mi West 9.2 mph 25.3 mph N/A   Clear
3:53 PM 55.9 °F - 27.0 °F 33% 29.96 in 10.0 mi WNW 12.7 mph 20.7 mph N/A   Scattered Clouds
4:53 PM 55.9 °F - 26.1 °F 32% 29.99 in 10.0 mi West 12.7 mph 23.0 mph N/A   Clear
5:53 PM 55.9 °F - 24.1 °F 29% 30.02 in 10.0 mi WNW 10.4 mph 18.4 mph N/A   Partly Cloudy
6:53 PM 54.0 °F - 21.9 °F 29% 30.06 in 10.0 mi WNW 12.7 mph 16.1 mph N/A   Partly Cloudy
7:53 PM 52.0 °F - 21.9 °F 31% 30.11 in 10.0 mi NW 9.2 mph - N/A   Partly Cloudy
8:53 PM 50.0 °F - 21.9 °F 33% 30.16 in 10.0 mi Variable 4.6 mph - N/A   Clear
9:53 PM 48.0 °F - 24.1 °F 39% 30.21 in 10.0 mi NW 5.8 mph - N/A   Clear
10:53 PM 46.0 °F 41.9 °F 24.1 °F 42% 30.25 in 10.0 mi NW 8.1 mph 19.6 mph N/A   Clear
11:53 PM 43.0 °F 37.2 °F 21.9 °F 43% 30.29 in 10.0 mi NNW 10.4 mph - N/A   Clear